Date String (YYYY-MM-DD hh:mm:ss) UTC,Instrument flags,absolute air pressure of the measurement (hPa),sample flow rate (lpm),inlet stack bypass flow (lpm),air temperature of the measurement (°C),ambient temperature measured by the external sensor (°C),aerosol sample conditioner tube jacket temperature (°C),OPC LED temperature (°C),internal box temperature (°C),relative humidity of the measurement (%),span deviation,mass concentration of particles derived from Lorenz-Mie calculation of OPC scattering (μg/m³),mass concentration of particles derived from Lorenz-Mie calculation of OPC scattering (μg/m³),mass concentration of particles derived from Lorenz-Mie calculation of OPC scattering (μg/m³)
DateTimeUTC,F1_M11,P_M11,Q1_M11,Q2_M11,T1_M11,T2_M11,T3_M11,T4_M11,T5_M11,U1_M11,ZSPAN_M11,X2_M11,X0_M11,X1_M11
2023-11-17 01:00:00,SystemResetWarning,0827.0,5.00,000.00,027.3,026.1,000.0,035.7,028.6,14.9,0000.0,0000.79,0001.00,0000.72
2023-11-17 01:01:00,SystemResetWarning,0827.1,5.00,000.00,027.3,026.1,000.0,035.7,028.6,14.9,0000.0,0000.77,0000.97,0000.71
2023-11-17 01:02:00,SystemResetWarning,0827.1,5.00,000.00,027.3,026.1,000.0,035.7,028.6,14.9,0000.0,0000.77,0000.98,0000.71
2023-11-17 01:03:00,SystemResetWarning,0827.1,5.00,000.00,027.3,026.1,000.0,035.7,028.6,15.0,0000.0,0000.77,0001.00,0000.69
2023-11-17 01:04:00,SystemResetWarning,0827.1,5.00,000.00,027.2,026.1,000.0,035.7,028.6,15.1,0000.0,0000.77,0001.01,0000.69
2023-11-17 01:05:00,SystemResetWarning,0827.1,5.00,000.00,027.2,026.1,000.0,035.7,028.6,15.2,0000.0,0000.79,0001.26,0000.70
2023-11-17 01:06:00,SystemResetWarning,0827.1,4.99,000.00,027.2,026.0,000.0,035.7,028.6,15.2,0000.0,0000.79,0001.79,0000.68
2023-11-17 01:07:00,SystemResetWarning,0827.2,5.00,000.00,027.2,026.0,000.0,035.7,028.6,15.2,0000.0,0000.80,0001.81,0000.67
2023-11-17 01:08:00,SystemResetWarning,0827.2,4.99,000.00,027.2,026.0,000.0,035.7,028.6,15.2,0000.0,0000.78,0001.79,0000.65
2023-11-17 01:09:00,SystemResetWarning,0827.3,5.01,000.00,027.2,026.0,000.0,035.7,028.6,15.3,0000.0,0000.76,0001.73,0000.63
2023-11-17 01:10:00,SystemResetWarning,0827.3,5.01,000.00,027.2,026.0,000.0,035.7,028.6,15.2,0000.0,0000.74,0001.73,0000.62
2023-11-17 01:11:00,SystemResetWarning,0827.3,5.01,000.00,027.2,026.0,000.0,035.6,028.7,15.2,0000.0,0000.75,0001.78,0000.61
2023-11-17 01:12:00,SystemResetWarning,0827.3,4.99,000.00,027.2,026.1,000.0,035.6,028.7,15.1,0000.0,0000.73,0001.76,0000.59
2023-11-17 01:13:00,SystemResetWarning,0827.4,4.99,000.00,027.2,026.1,000.0,035.7,028.7,14.8,0000.0,0000.75,0001.83,0000.58
2023-11-17 01:14:00,SystemResetWarning,0827.4,5.00,000.00,027.2,026.1,000.0,035.7,028.7,14.9,0000.0,0000.73,0001.79,0000.57
2023-11-17 01:15:00,SystemResetWarning,0827.4,4.99,000.00,027.2,026.1,000.0,035.7,028.7,14.9,0000.0,0000.72,0001.85,0000.55
2023-11-17 01:16:00,SystemResetWarning,0827.4,5.00,000.00,027.3,026.1,000.0,035.7,028.7,14.9,0000.0,0000.72,0001.87,0000.53
2023-11-17 01:17:00,SystemResetWarning,0827.7,5.01,000.00,027.3,026.1,000.0,035.7,028.7,14.9,0000.0,0000.70,0001.26,0000.52
2023-11-17 01:18:00,SystemResetWarning,0827.5,5.00,000.00,027.3,026.1,000.0,035.7,028.7,14.9,0000.0,0000.70,0001.12,0000.51
2023-11-17 01:19:00,SystemResetWarning,0827.4,5.00,000.00,027.3,026.1,000.0,035.7,028.6,15.0,0000.0,0000.69,0001.13,0000.51
2023-11-17 01:20:00,SystemResetWarning,0827.6,5.00,000.00,027.3,026.1,000.0,035.7,028.6,15.0,0000.0,0000.70,0001.21,0000.50
2023-11-17 01:21:00,SystemResetWarning,0827.5,5.00,000.00,027.2,026.1,000.0,035.7,028.6,15.1,0000.0,0000.69,0001.22,0000.48
2023-11-17 01:22:00,SystemResetWarning,0827.6,5.00,000.00,027.3,026.1,000.0,035.7,028.7,15.1,0000.0,0000.66,0001.17,0000.46
2023-11-17 01:23:00,SystemResetWarning,0827.7,5.00,000.00,027.3,026.1,000.0,035.7,028.7,15.1,0000.0,0000.64,0001.12,0000.45
2023-11-17 01:24:00,SystemResetWarning,0827.6,4.99,000.00,027.3,026.2,000.0,035.7,028.7,15.0,0000.0,0000.62,0001.09,0000.43
2023-11-17 01:25:00,SystemResetWarning,0827.7,5.00,000.00,027.3,026.2,000.0,035.7,028.7,15.0,0000.0,0000.61,0001.06,0000.41
2023-11-17 01:26:00,SystemResetWarning,0827.7,5.00,000.00,027.3,026.3,000.0,035.7,028.8,14.9,0000.0,0000.58,0000.98,0000.40
2023-11-17 01:27:00,SystemResetWarning,0827.7,5.00,000.00,027.3,026.3,000.0,035.7,028.8,15.1,0000.0,0000.55,0000.89,0000.39
2023-11-17 01:28:00,SystemResetWarning,0827.7,5.00,000.00,027.3,026.3,000.0,035.7,028.8,15.2,0000.0,0000.52,0000.83,0000.39
2023-11-17 01:29:00,SystemResetWarning,0827.8,5.00,000.00,027.3,026.3,000.0,035.7,028.7,15.3,0000.0,0000.50,0000.81,0000.38
2023-11-17 01:30:00,SystemResetWarning,0827.8,5.00,000.00,027.3,026.3,000.0,035.7,028.8,15.4,0000.0,0000.48,0000.76,0000.37
2023-11-17 01:31:00,SystemResetWarning,0827.9,5.00,000.00,027.3,026.3,000.0,035.7,028.8,15.5,0000.0,0000.45,0000.67,0000.36
2023-11-17 01:32:00,SystemResetWarning,0828.0,5.00,000.00,027.3,026.3,000.0,035.7,028.8,15.6,0000.0,0000.44,0000.61,0000.36
2023-11-17 01:33:00,SystemResetWarning,0827.7,5.00,000.00,027.4,026.4,000.0,035.7,028.8,15.5,0000.0,0000.43,0000.60,0000.35
2023-11-17 01:34:00,SystemResetWarning,0827.8,5.00,000.00,027.4,026.4,000.0,035.7,028.8,15.4,0000.0,0000.41,0000.57,0000.34
2023-11-17 01:35:00,SystemResetWarning,0827.8,5.00,000.00,027.4,026.4,000.0,035.7,028.8,15.4,0000.0,0000.39,0000.52,0000.34
2023-11-17 01:36:00,SystemResetWarning,0827.9,5.01,000.00,027.4,026.4,000.0,035.7,028.8,15.4,0000.0,0000.38,0000.49,0000.34
2023-11-17 01:37:00,SystemResetWarning,0828.0,5.01,000.00,027.4,026.4,000.0,035.7,028.9,15.4,0000.0,0000.40,0000.55,0000.34
2023-11-17 01:38:00,SystemResetWarning,0828.1,5.00,000.00,027.4,026.4,000.0,035.7,028.8,15.4,0000.0,0000.40,0001.14,0000.34
2023-11-17 01:39:00,SystemResetWarning,0828.0,5.01,000.00,027.4,026.4,000.0,035.7,028.9,15.3,0000.0,0000.40,0001.43,0000.34
2023-11-17 01:40:00,SystemResetWarning,0828.0,5.00,000.00,027.4,026.4,000.0,035.7,028.9,15.6,0000.0,0000.42,0001.49,0000.33
2023-11-17 01:41:00,SystemResetWarning,0828.0,5.00,000.00,027.4,026.5,000.0,035.8,028.9,15.8,0000.0,0000.44,0001.94,0000.33
2023-11-17 01:42:00,SystemResetWarning,0828.0,4.99,000.00,027.4,026.5,000.0,035.8,028.9,15.8,0000.0,0000.46,0003.36,0000.33
2023-11-17 01:43:00,SystemResetWarning,0828.1,5.00,000.00,027.5,026.5,000.0,035.8,028.9,15.8,0000.0,0000.47,0003.52,0000.33
2023-11-17 01:44:00,SystemResetWarning,0828.0,5.00,000.00,027.5,026.5,000.0,035.8,028.9,15.8,0000.0,0000.47,0003.51,0000.33
2023-11-17 01:45:00,SystemResetWarning,0828.1,5.00,000.00,027.5,026.5,000.0,035.8,029.0,15.7,0000.0,0000.50,0003.58,0000.34
2023-11-17 01:46:00,SystemResetWarning,0828.1,5.01,000.00,027.5,026.6,000.0,035.8,028.9,15.7,0000.0,0000.53,0003.82,0000.34
2023-11-17 01:47:00,SystemResetWarning,0828.1,5.00,000.00,027.5,026.6,000.0,035.8,029.0,15.7,0000.0,0000.55,0005.39,0000.35
2023-11-17 01:48:00,SystemResetWarning,0828.2,4.99,000.00,027.5,026.6,000.0,035.8,029.0,15.7,0000.0,0000.53,0005.36,0000.34
2023-11-17 01:49:00,SystemResetWarning,0828.2,4.99,000.00,027.5,026.6,000.0,035.8,029.0,15.7,0000.0,0000.53,0005.03,0000.34
2023-11-17 01:50:00,SystemResetWarning,0828.2,5.00,000.00,027.5,026.6,000.0,035.8,029.0,15.8,0000.0,0000.55,0004.57,0000.33
2023-11-17 01:51:00,SystemResetWarning,0828.2,5.00,000.00,027.5,026.6,000.0,035.8,029.0,15.8,0000.0,0000.56,0004.65,0000.34
2023-11-17 01:52:00,SystemResetWarning,0828.2,5.00,000.00,027.5,026.6,000.0,035.8,029.0,15.7,0000.0,0000.56,0004.64,0000.33
2023-11-17 01:53:00,SystemResetWarning,0828.1,5.01,000.00,027.6,026.6,000.0,035.9,029.0,15.8,0000.0,0000.56,0003.06,0000.33
2023-11-17 01:54:00,SystemResetWarning,0828.0,5.01,000.00,027.6,026.7,000.0,035.9,029.0,15.8,0000.0,0000.56,0002.96,0000.33
2023-11-17 01:55:00,SystemResetWarning,0828.0,5.00,000.00,027.6,026.7,000.0,035.9,029.0,15.9,0000.0,0000.55,0002.91,0000.32
2023-11-17 01:56:00,SystemResetWarning,0828.0,5.00,000.00,027.6,026.7,000.0,035.9,029.1,15.8,0000.0,0000.54,0002.88,0000.33
2023-11-17 01:57:00,SystemResetWarning,0828.1,4.99,000.00,027.6,026.7,000.0,035.9,029.1,16.0,0000.0,0000.51,0002.56,0000.33
2023-11-17 01:58:00,SystemResetWarning,0828.1,4.99,000.00,027.6,026.7,000.0,035.9,029.1,15.9,0000.0,0000.52,0001.27,0000.34
2023-11-17 01:59:00,SystemResetWarning,0828.2,4.99,000.00,027.6,026.7,000.0,035.9,029.1,16.0,0000.0,0000.54,0001.66,0000.35
